Regional Weather Roundup
Issued by NWS

Home | Current Version | Previous Version | Text Only | Print | Product List | Glossary Off
Versions: 1 2 3 4 5 6 7 8 9 10 11 12 13 14 15 16 17 18 19 20 21 22 23 24 25 26 27 28 29 30 31 32 33 34 35 36 37 38 39 40 41 42 43 44 45 46 47 48 49 50

000
ASUS45 KABQ 220610
RWRNM
NEW MEXICO REGIONAL WEATHER ROUNDUP
NATIONAL WEATHER SERVICE ALBUQUERQUE NM
1200 AM MDT TUE AUG 22 2017

NOTE: "FAIR" MEANS FEW OR NO CLOUDS BELOW 12,000 FEET AGL WITH NO
       SIGNIFICANT WEATHER OR OBSTRUCTIONS TO VISION.

      THIS PRODUCT IS RELEASED AS TWO VERSIONS.  ONE VERSION NEAR
      THE TOP OF THE HOUR CONTAINING PRELIMINARY DATA FROM ALBUQUERQUE
      AND OTHER STATIONS.  A FINAL VERSION WITH ADDITIONAL DATA IS
      ISSUED ABOUT 10 MINUTES AFTER THE HOUR.

NMZ501-503-504-510>518-220700-
NORTHWEST PLATEAU/NORTHCENTRAL MOUNTAINS

CITY           SKY/WX    TMP DP  RH WIND       PRES   REMARKS
FARMINGTON     LGT RAIN  67  53  61 E8        30.28R
6HR MIN TEMP:  66; 6HR MAX TEMP:  86; 6HR PCP: TRACE;

LOS ALAMOS     MOCLDY    60  49  65 N15G21    30.41S
SANTA FE       CLOUDY    61  56  83 N13       30.34R
6HR MIN TEMP:  61; 6HR MAX TEMP:  75;

TAOS           CLOUDY    58  53  84 SW5       30.43S
ANGEL FIRE     FAIR      51  48  89 NE8       30.49F

$$
NMZ402-403-502-505>509-220700-
WESTCENTRAL MOUNTAINS/SOUTHWEST MOUNTAINS

CITY           SKY/WX    TMP DP  RH WIND       PRES   REMARKS
GALLUP         FAIR      66  47  50 NE12      30.33R
6HR MIN TEMP:  57; 6HR MAX TEMP:  76;

GRANTS         CLOUDY    61  47  60 NW6       30.35R
SILVER CITY    MOCLDY    63  57  80 NE7       30.25S

$$
NMZ407-409-411-412-220700-
SOUTHERN DESERTS

CITY           SKY/WX    TMP DP  RH WIND       PRES   REMARKS
DEMING         FAIR      70  64  81 NW5       30.17S
6HR MIN TEMP:  70; 6HR MAX TEMP:  85;

LAS CRUCES     FAIR      72  63  72 S6        30.19S
HOLLOMAN AFB   FAIR      71  62  75 E6        30.18S
ALAMOGORDO     FAIR      72  59  64 E5        30.18F
T OR C         FAIR      74  59  59 CALM      30.19S
6HR MIN TEMP:  74; 6HR MAX TEMP:  83;


$$
NMZ519>523-220700-
CENTRAL VALLEYS/CENTRAL HIGHLANDS

CITY           SKY/WX    TMP DP  RH WIND       PRES   REMARKS
ALBUQUERQUE    CLOUDY    73  57  57 SW5       30.26R
6HR MIN TEMP:  72; 6HR MAX TEMP:  79;

MORIARTY ARPT  MOCLDY    65  58  79 CALM      30.33R
6HR MIN TEMP:  62; 6HR MAX TEMP:  78;

CLINES CORNERS CLOUDY    61  52  72 SE5       30.37R
6HR MIN TEMP:  60; 6HR MAX TEMP:  73;

BELEN          FAIR      69  61  76 S3        30.25R
6HR MIN TEMP:  69; 6HR MAX TEMP:  78;

SOCORRO        FAIR      68  60  75 S5        30.23R
6HR MIN TEMP:  68; 6HR MAX TEMP:  82;


$$
NMZ524>526-539-540-220700-
SOUTHCENTRAL MOUNTAINS

CITY           SKY/WX    TMP DP  RH WIND       PRES   REMARKS
RUIDOSO        FAIR      59  55  88 SW7       30.38S

$$
NMZ527>531-220700-
NORTHEAST HIGHLANDS/NORTHEAST PLAINS

CITY           SKY/WX    TMP DP  RH WIND       PRES   REMARKS
LAS VEGAS      CLOUDY    59  54  83 N8        30.36F
6HR MIN TEMP:  58; 6HR MAX TEMP:  66;

RATON          MOCLDY    62  51  67 N15G24    30.31F
6HR MIN TEMP:  59; 6HR MAX TEMP:  75; 6HR PCP:  0.72;

CLAYTON        MOCLDY    67  60  78 W7        30.20S
6HR MIN TEMP:  66; 6HR MAX TEMP:  79;


$$
NMZ532>537-220700-
EASTCENTRAL PLAINS

CITY           SKY/WX    TMP DP  RH WIND       PRES   REMARKS
SANTA ROSA     MOCLDY    65  62  88 SE3       30.22R
TUCUMCARI      FAIR      71  65  81 W6        30.15S
6HR MIN TEMP:  70; 6HR MAX TEMP:  82; 6HR PCP: TRACE;

CANNON AFB     FAIR      66  66 100 CALM      30.21S
6HR MIN TEMP:  66; 6HR MAX TEMP:  80;

CLOVIS AIRPORT FAIR      66  64  93 S3        30.20S

$$
NMZ028-029-538-220700-
SOUTHEAST PLAINS

CITY           SKY/WX    TMP DP  RH WIND       PRES   REMARKS
ROSWELL        FAIR      71  66  84 CALM      30.14S
6HR MIN TEMP:  71; 6HR MAX TEMP:  82;

ARTESIA        FAIR      73  68  83 S8        30.14S
CARLSBAD       FAIR      73  70  90 S8        30.11S
6HR MIN TEMP:  72; 6HR MAX TEMP:  84;

HOBBS          FAIR      70  66  88 S7        30.16S


$$




USA.gov is the U.S. government's official web portal to all federal, state and local government web resources and services.